timestamp,surface_pressure_avg,surface_temp_avg,battery_voltage,lat,long
2019-10-20 00:00:00+00:00,275.938,10.17,12.97,47.84626,-54.09684
2019-10-20 00:10:00+00:00,275.5714,10.2,12.97,47.84626,-54.09684
2019-10-20 00:20:00+00:00,276.3698,10.29,13.05,47.84626,-54.09684
2019-10-20 00:30:00+00:00,283.6348,10.3,13.05,47.84626,-54.09684
2019-10-20 00:40:00+00:00,290.1247,10.29,13.05,47.84626,-54.09684
2019-10-20 00:50:00+00:00,292.353,10.28,13.05,47.84626,-54.09684
2019-10-20 01:00:00+00:00,296.2847,10.24,12.97,47.84626,-54.09684
2019-10-20 01:10:00+00:00,301.4296,10.2,12.89,47.84626,-54.09684
2019-10-20 01:20:00+00:00,307.9363,10.2,12.97,47.84626,-54.09684
2019-10-20 01:30:00+00:00,315.0179,10.27,12.97,47.84626,-54.09684
2019-10-20 01:40:00+00:00,318.1114,10.39,13.05,47.84626,-54.09684
2019-10-20 01:50:00+00:00,321.5213,10.4,13.05,47.84626,-54.09684
2019-10-20 02:00:00+00:00,328.283,10.22,12.97,47.84626,-54.09684
2019-10-20 02:10:00+00:00,331.363,10.2,12.89,47.84626,-54.09684
2019-10-20 02:20:00+00:00,326.9963,10.2,12.97,47.84626,-54.09684
2019-10-20 02:30:00+00:00,329.4512,10.2,12.97,47.84626,-54.09684
2019-10-20 02:40:00+00:00,338.838,10.2,12.97,47.84626,-54.09684
2019-10-20 02:50:00+00:00,338.8113,10.2,12.97,47.84626,-54.09684
2019-10-20 03:00:00+00:00,333.468,10.2,12.97,47.84626,-54.09684
2019-10-20 03:10:00+00:00,339.153,10.11,12.89,47.84626,-54.09684
2019-10-20 03:20:00+00:00,344.9363,10.17,12.97,47.84626,-54.09684
2019-10-20 03:30:00+00:00,339.093,10.1,12.97,47.84626,-54.09684
2019-10-20 03:40:00+00:00,334.3629,10.1,12.97,47.84626,-54.09684
2019-10-20 03:50:00+00:00,336.738,10.16,12.97,47.84626,-54.09684
2019-10-20 04:00:00+00:00,336.3513,10.24,12.89,47.84626,-54.09684
2019-10-20 04:10:00+00:00,329.063,10.34,12.89,47.84626,-54.09684
2019-10-20 04:20:00+00:00,329.2547,10.4,12.97,47.84626,-54.09684
2019-10-20 04:30:00+00:00,334.8112,10.39,12.97,47.84626,-54.09684
2019-10-20 04:40:00+00:00,331.8329,10.4,12.97,47.84626,-54.09684
2019-10-20 04:50:00+00:00,324.2413,10.3,12.97,47.84626,-54.09684
2019-10-20 05:00:00+00:00,324.7013,10.3,12.89,47.84626,-54.09684
2019-10-20 05:10:00+00:00,324.3713,10.2,12.81,47.84626,-54.09684
2019-10-20 05:20:00+00:00,317.9547,10.28,12.97,47.84626,-54.09684
2019-10-20 05:30:00+00:00,313.8847,10.25,12.97,47.84626,-54.09684
2019-10-20 05:40:00+00:00,311.318,10.21,12.97,47.84626,-54.09684
2019-10-20 05:50:00+00:00,303.5414,10.2,12.97,47.84626,-54.09684
2019-10-20 06:00:00+00:00,294.8397,10.2,12.89,47.84626,-54.09684
2019-10-20 06:10:00+00:00,292.3864,10.19,12.81,47.84626,-54.09684
2019-10-20 06:20:00+00:00,285.2781,10.15,12.89,47.84626,-54.09684
2019-10-20 06:30:00+00:00,275.4197,10.18,12.89,47.84626,-54.09684
2019-10-20 06:40:00+00:00,271.0347,10.2,12.97,47.84626,-54.09684
2019-10-20 06:50:00+00:00,267.5981,10.3,12.97,47.84626,-54.09684
2019-10-20 07:00:00+00:00,258.2597,10.3,12.81,47.84626,-54.09684
2019-10-20 07:10:00+00:00,247.403,10.3,12.81,47.84626,-54.09684
2019-10-20 07:20:00+00:00,242.2898,10.3,12.89,47.84626,-54.09684
2019-10-20 07:30:00+00:00,238.6897,10.3,12.89,47.84626,-54.09684
2019-10-20 07:40:00+00:00,232.9031,10.36,12.89,47.84626,-54.09684
2019-10-20 07:50:00+00:00,224.8564,10.36,12.89,47.84626,-54.09684
2019-10-20 08:00:00+00:00,220.6548,10.37,12.81,47.84626,-54.09684
2019-10-20 08:10:00+00:00,220.5865,10.38,12.81,47.84626,-54.09684
2019-10-20 08:20:00+00:00,219.943,10.37,12.89,47.84626,-54.09684
2019-10-20 08:30:00+00:00,219.0114,10.36,12.89,47.84626,-54.09684
2019-10-20 08:40:00+00:00,219.6364,10.35,12.89,47.84626,-54.09684
2019-10-20 08:50:00+00:00,220.4331,10.3,12.89,47.84626,-54.09684
2019-10-20 09:00:00+00:00,220.9081,10.3,12.81,47.84626,-54.09684
2019-10-20 09:10:00+00:00,221.1548,10.3,12.73,47.84626,-54.09684
2019-10-20 09:20:00+00:00,222.3631,10.3,12.81,47.84626,-54.09684
2019-10-20 09:30:00+00:00,225.5648,10.3,12.81,47.84626,-54.09684
2019-10-20 09:40:00+00:00,228.3914,10.2,12.89,47.84626,-54.09684
2019-10-20 09:50:00+00:00,228.9214,10.1,12.89,47.84626,-54.09684
2019-10-20 10:00:00+00:00,231.9781,10.1,12.81,47.84626,-54.09684
2019-10-20 10:10:00+00:00,238.7348,10.1,12.73,47.84626,-54.09684
2019-10-20 10:20:00+00:00,242.7164,10.17,12.81,47.84626,-54.09684
2019-10-20 10:30:00+00:00,241.9648,10.2,12.81,47.84626,-54.09684
2019-10-20 10:40:00+00:00,245.6631,10.2,12.81,47.84626,-54.09684
2019-10-20 10:50:00+00:00,252.5164,10.2,12.81,47.84626,-54.09684
2019-10-20 11:00:00+00:00,256.5564,10.2,12.81,47.84626,-54.09684
2019-10-20 11:10:00+00:00,254.7298,10.2,12.73,47.84626,-54.09684
2019-10-20 11:20:00+00:00,257.3398,10.17,12.81,47.84626,-54.09684
2019-10-20 11:30:00+00:00,263.0114,10.1,12.81,47.84626,-54.09684
2019-10-20 11:40:00+00:00,263.5447,10.1,12.89,47.84626,-54.09684
2019-10-20 11:50:00+00:00,262.1997,10.1,12.89,47.84626,-54.09684
2019-10-20 12:00:00+00:00,270.2281,10.1,12.89,47.84626,-54.09684
2019-10-20 12:10:00+00:00,276.8047,10.1,12.81,47.84626,-54.09684
2019-10-20 12:20:00+00:00,276.6381,10.1,12.89,47.84626,-54.09684
2019-10-20 12:30:00+00:00,281.998,10.1,12.97,47.84626,-54.09684
2019-10-20 12:40:00+00:00,290.6164,10.1,13.05,47.84626,-54.09684
2019-10-20 12:50:00+00:00,293.813,10.1,13.21,47.84626,-54.09684
2019-10-20 13:00:00+00:00,296.663,10.1,13.13,47.84626,-54.09684
2019-10-20 13:10:00+00:00,305.7197,10.17,13.13,47.84626,-54.09684
2019-10-20 13:20:00+00:00,310.6896,10.18,13.29,47.84626,-54.09684
2019-10-20 13:30:00+00:00,315.5098,10.12,13.29,47.84626,-54.09684
2019-10-20 13:40:00+00:00,323.7747,10.1,13.29,47.84626,-54.09684
2019-10-20 13:50:00+00:00,329.018,10.07,13.37,47.84626,-54.09684
2019-10-20 14:00:00+00:00,330.9896,10.07,13.29,47.84626,-54.09684
2019-10-20 14:10:00+00:00,336.4547,10.07,13.21,47.84626,-54.09684
2019-10-20 14:20:00+00:00,343.0396,10.06,13.29,47.84626,-54.09684
2019-10-20 14:30:00+00:00,344.218,10.07,13.29,47.84626,-54.09684
2019-10-20 14:40:00+00:00,342.338,10.08,13.37,47.84626,-54.09684
2019-10-20 14:50:00+00:00,345.873,10.06,13.29,47.84626,-54.09684
2019-10-20 15:00:00+00:00,349.1163,10.08,13.21,47.84626,-54.09684
2019-10-20 15:10:00+00:00,349.7297,10.09,13.13,47.84626,-54.09684
2019-10-20 15:20:00+00:00,350.2079,10.09,13.21,47.84626,-54.09684
2019-10-20 15:30:00+00:00,352.468,10.09,13.29,47.84626,-54.09684
2019-10-20 15:40:00+00:00,352.118,10.1,13.29,47.84626,-54.09684
2019-10-20 15:50:00+00:00,349.733,10.1,13.37,47.84626,-54.09684
2019-10-20 16:00:00+00:00,349.6379,10.1,13.29,47.84626,-54.09684
2019-10-20 16:10:00+00:00,351.4747,10.09,13.21,47.84626,-54.09684
2019-10-20 16:20:00+00:00,351.6963,10.1,13.29,47.84626,-54.09684
2019-10-20 16:30:00+00:00,351.3463,10.1,13.29,47.84626,-54.09684
2019-10-20 16:40:00+00:00,352.0714,10.1,13.29,47.84626,-54.09684
2019-10-20 16:50:00+00:00,350.5946,10.1,13.29,47.84626,-54.09684
2019-10-20 17:00:00+00:00,349.503,10.1,13.29,47.84626,-54.09684
2019-10-20 17:10:00+00:00,346.9547,10.1,13.21,47.84626,-54.09684
2019-10-20 17:20:00+00:00,342.6412,10.1,13.37,47.84626,-54.09684
2019-10-20 17:30:00+00:00,338.478,10.1,13.37,47.84626,-54.09684
2019-10-20 17:40:00+00:00,334.5496,10.1,13.44,47.84626,-54.09684
2019-10-20 17:50:00+00:00,329.6246,10.1,13.6,47.84626,-54.09684
2019-10-20 18:00:00+00:00,321.843,10.1,13.44,47.84626,-54.09684
2019-10-20 18:10:00+00:00,317.468,10.1,13.29,47.84626,-54.09684
2019-10-20 18:20:00+00:00,313.1846,10.1,13.37,47.84626,-54.09684
2019-10-20 18:30:00+00:00,307.0814,10.1,13.44,47.84626,-54.09684
2019-10-20 18:40:00+00:00,298.828,10.1,13.44,47.84626,-54.09684
2019-10-20 18:50:00+00:00,292.6797,10.11,13.44,47.84626,-54.09684
2019-10-20 19:00:00+00:00,287.5447,10.27,13.29,47.84626,-54.09684
2019-10-20 19:10:00+00:00,280.6663,10.22,13.21,47.84626,-54.09684
2019-10-20 19:20:00+00:00,272.463,10.24,13.29,47.84626,-54.09684
2019-10-20 19:30:00+00:00,265.2497,10.27,13.21,47.84626,-54.09684
2019-10-20 19:40:00+00:00,258.603,10.3,13.21,47.84626,-54.09684
2019-10-20 19:50:00+00:00,252.4381,10.3,13.29,47.84626,-54.09684
2019-10-20 20:00:00+00:00,246.6648,10.3,13.21,47.84626,-54.09684
2019-10-20 20:10:00+00:00,242.8364,10.3,13.05,47.84626,-54.09684
2019-10-20 20:20:00+00:00,238.9998,10.2,13.13,47.84626,-54.09684
2019-10-20 20:30:00+00:00,234.3931,10.2,13.13,47.84626,-54.09684
2019-10-20 20:40:00+00:00,230.0014,10.2,13.13,47.84626,-54.09684
2019-10-20 20:50:00+00:00,226.3798,10.2,13.13,47.84626,-54.09684
2019-10-20 21:00:00+00:00,227.0631,10.2,13.05,47.84626,-54.09684
2019-10-20 21:10:00+00:00,226.0631,10.2,12.97,47.84626,-54.09684
2019-10-20 21:20:00+00:00,223.4764,10.2,13.05,47.84626,-54.09684
2019-10-20 21:30:00+00:00,225.8798,10.2,13.05,47.84626,-54.09684
2019-10-20 21:40:00+00:00,231.2414,10.2,13.05,47.84626,-54.09684
2019-10-20 21:50:00+00:00,231.3847,10.2,13.05,47.84626,-54.09684
2019-10-20 22:00:00+00:00,230.8364,10.2,12.97,47.84626,-54.09684
2019-10-20 22:10:00+00:00,233.3064,10.2,12.89,47.84626,-54.09684
2019-10-20 22:20:00+00:00,234.7831,10.2,12.97,47.84626,-54.09684
2019-10-20 22:30:00+00:00,235.5347,10.2,12.97,47.84626,-54.09684
2019-10-20 22:40:00+00:00,236.7964,10.2,12.97,47.84626,-54.09684
2019-10-20 22:50:00+00:00,237.5281,10.21,12.97,47.84626,-54.09684
2019-10-20 23:00:00+00:00,235.1431,10.21,12.89,47.84626,-54.09684
2019-10-20 23:10:00+00:00,234.6764,10.21,12.89,47.84626,-54.09684
2019-10-20 23:20:00+00:00,237.8264,10.2,12.97,47.84626,-54.09684
2019-10-20 23:30:00+00:00,239.4147,10.21,12.97,47.84626,-54.09684
2019-10-20 23:40:00+00:00,238.3648,10.22,12.97,47.84626,-54.09684
2019-10-20 23:50:00+00:00,238.9898,10.2,12.97,47.84626,-54.09684
